Weather observations for the past three days for
Elk Mountain AWOS
Imperial (Metric)
Date Time (mdt) Wind (mph) Vis. (mi.) Weather Sky Cond. Temperature (ºF) Relative Humidity Wind Chill (°F) Heat Index (°F) Pressure Precipitation (in)
Air Dwpt 6 hour altimeter (in) sea level (mb) 1 hr 3 hr 6 hr
Max. Min.
23 11:15 W 9 G 16 10.00 Fair CLR 77 15.8 10% 76 30.36 0.0
23 10:55 W 7 10.00 Fair CLR 77 19.4 11% 76 30.36 0.0
23 10:35 W 10 10.00 Fair CLR 75.2 19.4 12% 75 30.36 0.0
23 10:15 Calm 10.00 Fair CLR 71.6 28.4 20% 30.36 0.0
23 09:55 NW 3 10.00 Fair CLR 71.6 28.4 20% 30.36 0.0
23 09:35 NW 3 10.00 Fair CLR 69.8 30.2 23% 30.36 0.0
23 09:15 Calm 10.00 Fair CLR 68 28.4 23% 30.36 0.0
23 08:55 W 3 10.00 Fair CLR 64.4 32 30% 30.37 0.0
23 08:35 Calm 10.00 Fair CLR 60.8 33.8 36% 30.36 0.0
23 08:15 Calm 10.00 Fair CLR 60.8 32 34% 30.37 0.0
23 07:55 Calm 10.00 Fair CLR 55.4 35.6 47% 30.36 0.0
23 07:35 Calm 10.00 Fair CLR 51.8 35.6 54% 30.36 0.0
23 07:15 Calm 10.00 Fair CLR 51.8 35.6 54% 30.36 0.0
23 06:55 Calm 10.00 Fair CLR 50 33.8 54% 30.35 0.0
23 06:35 W 3 10.00 Fair CLR 48.2 33.8 58% 30.35 0.0
23 06:15 Calm 10.00 Fair CLR 46.4 33.8 62% 30.34 0.0
23 05:55 Calm 10.00 Fair CLR 46.4 33.8 62% 30.34 0.0
23 05:35 E 3 10.00 Fair CLR 48.2 33.8 58% 30.34 0.0
23 05:15 Calm 10.00 Fair CLR 46.4 33.8 62% 30.34 0.0
23 04:55 Calm 10.00 Fair CLR 46.4 33.8 62% 30.33 0.0
23 04:35 E 5 10.00 Fair CLR 48.2 32 54% 47 30.33 0.0
23 04:15 Calm 10.00 Fair CLR 48.2 33.8 58% 30.33 0.0
23 03:55 E 6 10.00 Fair CLR 48.2 33.8 58% 46 30.33 0.0
23 03:35 E 6 10.00 Fair CLR 50 33.8 54% 48 30.33 0.0
23 03:15 Calm 10.00 Fair CLR 48.2 35.6 62% 30.33 0.0
23 02:55 Calm 10.00 Fair CLR 46.4 33.8 62% 30.33 0.0
23 02:35 Calm 10.00 Fair CLR 51.8 33.8 50% 30.33 0.0
23 02:15 Calm 10.00 Fair CLR 51.8 35.6 54% 30.33 0.0
23 01:55 Calm 10.00 Fair CLR 51.8 33.8 50% 30.33 0.0
23 01:35 SE 3 10.00 Fair CLR 51.8 33.8 50% 30.32 0.0
23 01:15 N 3 10.00 Fair CLR 51.8 33.8 50% 30.32 0.0
23 00:55 SE 3 10.00 Fair CLR 53.6 33.8 47% 30.32 0.0
23 00:35 E 7 10.00 Fair CLR 55.4 33.8 44% 30.31 0.0
23 00:15 E 6 10.00 Fair CLR 57.2 33.8 41% 30.32 0.0
22 23:55 SE 7 10.00 Fair CLR 57.2 33.8 41% 30.32 0.0
22 23:35 E 8 10.00 Fair CLR 59 33.8 39% 30.32 0.0
22 23:15 E 8 10.00 Fair CLR 59 33.8 39% 30.32 0.0
22 22:55 SE 6 10.00 Fair CLR 59 33.8 39% 30.32 0.0
22 22:35 E 6 10.00 Fair CLR 57.2 33.8 41% 30.32 0.0
22 22:15 SE 6 10.00 Fair CLR 59 32 36% 30.32 0.0
22 21:55 E 5 10.00 Fair CLR 60.8 32 34% 30.32 0.0
22 21:35 SE 5 10.00 Fair CLR 60.8 32 34% 30.32 0.0
22 21:15 SE 3 10.00 Fair CLR 62.6 32 32% 30.31 0.0
22 20:55 E 9 10.00 Fair CLR 64.4 28.4 26% 30.31 0.0
22 20:35 E 7 10.00 Fair CLR 66.2 26.6 22% 30.3 0.0
22 20:15 E 8 10.00 Fair CLR 68 21.2 17% 30.3 0.0
22 19:55 SE 3 10.00 Fair CLR 71.6 12.2 10% 30.29 0.0
22 19:35 NE 3 10.00 Fair CLR 73.4 8.6 8% 30.29 0.0
22 19:15 Calm 10.00 Fair CLR 73.4 6.8 7% 30.3 0.0
22 18:55 NE 7 10.00 Fair CLR 75.2 3.2 6% 74 30.3 0.0
22 18:35 NE 3 10.00 Fair CLR 77 5 6% 76 30.3 0.0
22 18:15 Calm 10.00 Fair CLR 77 -0.4 5% 75 30.3 0.0
22 17:55 NE 7 10.00 Fair CLR 77 -5.8 4% 75 30.31 0.0
22 17:35 NE 6 10.00 Fair CLR 77 -0.4 5% 75 30.31 0.0
22 17:15 NE 6 10.00 Fair CLR 77 3.2 5% 75 30.31 0.0
22 16:55 E 5 10.00 Partly Cloudy SCT090 77 3.2 5% 75 30.31 0.0
22 16:35 NE 6 G 16 10.00 Mostly Cloudy BKN090 77 8.6 7% 76 30.31 0.0
22 16:15 E 8 10.00 Fair CLR 77 8.6 7% 76 30.32 0.0
22 15:55 Calm 10.00 Fair CLR 77 6.8 6% 76 30.32 0.0
22 15:35 N 8 10.00 Fair CLR 77 6.8 6% 76 30.32 0.0
22 15:15 N 13 G 16 10.00 Fair CLR 75.2 12.2 9% 75 30.33 0.0
22 14:55 N 5 10.00 Fair CLR 77 10.4 8% 76 30.34 0.0
22 14:35 N 7 10.00 Fair CLR 75.2 5 6% 74 30.34 0.0
22 14:15 Calm 10.00 Fair CLR 75.2 8.6 7% 74 30.34 0.0
22 13:55 NE 8 10.00 Fair CLR 75.2 12.2 9% 75 30.34 0.0
22 13:35 N 9 10.00 Fair CLR 75.2 14 10% 75 30.35 0.0
22 13:15 N 7 10.00 Fair CLR 73.4 15.8 11% 30.36 0.0
22 12:55 E 3 10.00 Fair CLR 71.6 12.2 10% 30.36 0.0
22 12:35 W 3 10.00 Fair CLR 73.4 17.6 12% 30.36 0.0
22 12:15 Calm 10.00 Fair CLR 71.6 21.2 15% 30.36 0.0
22 11:55 N 8 10.00 Partly Cloudy SCT065 71.6 21.2 15% 30.37 0.0
22 11:35 NE 5 10.00 Fair CLR 71.6 26.6 19% 30.37 0.0
22 11:15 NE 6 10.00 Fair CLR 71.6 30.2 22% 30.37 0.0
22 10:55 NW 3 10.00 Partly Cloudy SCT050 69.8 32 25% 30.37 0.0
22 10:35 Calm 10.00 Fair CLR 69.8 32 25% 30.38 0.0
22 10:15 N 3 10.00 Fair CLR 68 33.8 28% 30.38 0.0
22 09:55 Calm 10.00 Fair CLR 66.2 33.8 30% 30.39 0.0
22 09:35 Calm 10.00 Fair CLR 64.4 35.6 34% 30.39 0.0
22 09:15 W 5 10.00 Fair CLR 62.6 37.4 39% 30.39 0.0
22 08:55 Calm 10.00 Fair CLR 60.8 39.2 45% 30.39 0.0
22 08:35 Calm 10.00 Fair CLR 59 37.4 45% 30.39 0.0
22 07:55 Calm 10.00 Fair CLR 53.6 37.4 54% 30.39 0.0
22 07:35 Calm 10.00 Fair CLR 51.8 37.4 58% 30.39 0.0
22 07:15 Calm 10.00 Fair CLR 46.4 35.6 66% 30.39 0.0
22 06:55 E 5 10.00 Fair CLR 46.4 35.6 66% 45 30.39 0.0
22 06:35 Calm 10.00 Fair CLR 44.6 33.8 66% 30.39 0.0
22 06:15 Calm 10.00 Fair CLR 46.4 33.8 62% 30.39 0.0
22 05:55 Calm 10.00 Fair CLR 46.4 35.6 66% 30.38 0.0
22 05:35 Calm 10.00 Fair CLR 44.6 35.6 71% 30.38 0.0
22 05:15 Calm 10.00 Fair CLR 44.6 35.6 71% 30.38 0.0
22 04:55 Calm 10.00 Fair CLR 44.6 35.6 71% 30.37 0.0
22 04:35 Calm 10.00 Fair CLR 46.4 37.4 71% 30.37 0.0
22 04:15 Calm 10.00 Fair CLR 46.4 39.2 76% 30.37 0.0
22 03:55 Calm 10.00 Fair CLR 44.6 35.6 71% 30.37 0.0
22 03:35 Calm 10.00 Fair CLR 44.6 35.6 71% 30.37 0.0
22 03:15 Calm 10.00 Fair CLR 46.4 35.6 66% 30.38 0.0
22 02:55 Calm 10.00 Fair CLR 46.4 35.6 66% 30.37 0.0
22 02:35 Calm 10.00 Fair CLR 46.4 35.6 66% 30.38 0.0
22 02:15 Calm 10.00 Fair CLR 48.2 35.6 62% 30.38 0.0
22 01:55 Calm 10.00 Fair CLR 50 35.6 58% 30.38 0.0
22 01:35 Calm 10.00 Fair CLR 50 35.6 58% 30.38 0.0
22 01:15 Calm 10.00 Fair CLR 50 35.6 58% 30.38 0.0
22 00:55 SE 5 10.00 Fair CLR 50 35.6 58% 49 30.39 0.0
22 00:35 E 5 10.00 Fair CLR 53.6 35.6 51% 30.39 0.0
22 00:15 E 5 10.00 Fair CLR 53.6 35.6 51% 30.39 0.0
21 23:55 E 7 10.00 Fair CLR 53.6 35.6 51% 30.39 0.0
21 23:35 E 6 10.00 Fair CLR 53.6 37.4 54% 30.39 0.0
21 23:15 E 6 10.00 Fair CLR 53.6 37.4 54% 30.39 0.0
21 22:55 E 3 10.00 Fair CLR 53.6 35.6 51% 30.39 0.0
21 22:35 Calm 10.00 Fair CLR 55.4 35.6 47% 30.39 0.0
21 22:15 E 5 10.00 Fair CLR 53.6 37.4 54% 30.39 0.0
21 21:55 SE 6 10.00 Fair CLR 55.4 35.6 47% 30.39 0.0
21 21:35 SE 5 10.00 Fair CLR 57.2 35.6 44% 30.39 0.0
21 21:15 E 5 10.00 Fair CLR 59 35.6 42% 30.39 0.0
21 20:55 E 6 10.00 Fair CLR 60.8 35.6 39% 30.38 0.0
21 20:35 E 6 10.00 Fair CLR 62.6 33.8 34% 30.37 0.0
21 20:15 E 10 10.00 Fair CLR 64.4 33.8 32% 30.38 0.0
21 19:55 E 15 G 20 10.00 Fair CLR 68 32 26% 30.38 0.0
21 19:35 NE 10 10.00 Fair CLR 69.8 26.6 20% 30.38 0.0
21 19:15 NE 10 G 16 10.00 Fair CLR 69.8 26.6 20% 30.37 0.0
21 18:55 NE 14 10.00 Fair CLR 69.8 24.8 18% 30.37 0.0
21 18:35 NE 15 G 18 10.00 Partly Cloudy SCT075 71.6 26.6 19% 30.38 0.0
21 18:15 N 14 G 17 10.00 Mostly Cloudy BKN075 71.6 23 16% 30.39 0.0
21 17:55 Calm 10.00 Partly Cloudy SCT120 71.6 23 16% 30.39 0.0
21 17:35 N 6 10.00 Partly Cloudy SCT120 69.8 23 17% 30.39 0.0
21 17:15 Calm 10.00 Partly Cloudy SCT120 69.8 24.8 18% 30.39 0.0
21 16:55 Calm 10.00 Partly Cloudy SCT075 SCT110 68 28.4 23% 30.39 0.0
21 16:35 NW 5 10.00 Mostly Cloudy SCT075 BKN090 BKN110 64.4 32 30% 30.4 0.0
21 16:15 NW 9 10.00 Mostly Cloudy BKN100 BKN120 64.4 35.6 34% 30.41 0.0
21 15:55 N 12 10.00 Mostly Cloudy SCT065 SCT075 BKN120 62.6 37.4 39% 30.41 0.0
21 15:35 N 18 G 24 10.00 Overcast OVC075 64.4 35.6 34% 30.41 0.0
21 15:15 N 17 G 25 10.00 Thunderstorm OVC070 68 32 26% 30.41 0.0
21 14:55 NE 17 G 24 10.00 Overcast OVC070 69.8 30.2 23% 30.39 0.0
21 14:35 E 18 G 24 10.00 Mostly Cloudy SCT070 SCT080 BKN120 71.6 30.2 22% 30.39 0.0
21 14:15 NE 5 10.00 Partly Cloudy SCT100 SCT120 71.6 30.2 22% 30.39 0.0
21 13:55 E 8 10.00 Mostly Cloudy SCT029 SCT065 BKN095 68 33.8 28% 30.39 0.0
21 13:35 N 12 G 16 10.00 Overcast SCT034 BKN090 OVC110 69.8 32 25% 30.39 0.0
21 13:15 NE 5 10.00 Mostly Cloudy BKN060 BKN090 BKN110 71.6 28.4 20% 30.41 0.0
21 12:55 NE 8 10.00 Mostly Cloudy BKN060 BKN110 73.4 28.4 19% 30.41 0.0
21 12:35 E 9 10.00 Mostly Cloudy BKN050 BKN070 73.4 30.2 20% 30.41 0.0
21 12:15 E 9 10.00 Mostly Cloudy BKN050 71.6 32 23% 30.41 0.0
21 11:55 E 10 G 16 10.00 Partly Cloudy SCT050 71.6 32 23% 30.42 0.0
21 11:35 NE 9 G 16 10.00 Fair CLR 71.6 32 23% 30.42 0.0
21 11:15 E 9 10.00 Fair CLR 69.8 32 25% 30.43 0.0
21 10:55 E 9 10.00 Fair CLR 69.8 33.8 27% 30.43 0.0
21 10:35 E 6 10.00 Fair CLR 68 35.6 30% 30.44 0.0
21 10:15 E 10 10.00 Fair CLR 68 39.2 35% 30.44 0.0
21 09:55 E 6 10.00 Fair CLR 66.2 41 40% 30.44 0.0
21 09:35 NE 7 10.00 Fair CLR 64.4 41 43% 30.44 0.0
21 09:15 E 7 10.00 Fair CLR 62.6 41 45% 30.44 0.0
21 08:55 E 6 10.00 Partly Cloudy SCT085 62.6 41 45% 30.44 0.0
21 08:35 NE 5 7.00 Fair CLR 60.8 41 48% 30.44 0.0
21 08:15 E 6 10.00 Fair CLR 59 42.8 55% 30.44 0.0
21 07:55 NE 5 10.00 NULL NULL 57.2 42.8 59% 30.44 0.0
21 07:35 E 6 10.00 NULL NULL 55.4 42.8 63% 30.44 0.0
21 07:15 E 5 10.00 NULL NULL 53.6 41 63% 30.44 0.0
21 06:55 E 3 10.00 NULL NULL 50 41 71% 30.43 0.0
21 06:35 E 6 10.00 NULL NULL 46.4 39.2 76% 44 30.43 0.0
21 06:15 E 5 10.00 Partly Cloudy SCT085 44.6 37.4 76% 43 30.44 0.0
21 05:55 E 5 10.00 NULL NULL 44.6 35.6 71% 43 30.43 0.0
21 05:35 E 5 10.00 NULL NULL 44.6 37.4 76% 43 30.44 0.0
21 05:15 E 6 10.00 NULL NULL 44.6 37.4 76% 42 30.43 0.0
21 04:55 E 6 10.00 NULL NULL 44.6 37.4 76% 42 30.42 0.0
21 04:35 Calm 10.00 NULL NULL 46.4 37.4 71% 30.43 0.0
21 04:15 E 5 10.00 NULL NULL 44.6 37.4 76% 43 30.43 0.0
21 03:55 E 5 10.00 NULL NULL 46.4 37.4 71% 45 30.43 0.0
21 03:35 E 5 10.00 NULL NULL 46.4 37.4 71% 45 30.43 0.0
21 03:15 E 5 10.00 NULL NULL 46.4 37.4 71% 45 30.43 0.0
21 02:55 E 3 10.00 Fair CLR 46.4 37.4 71% 30.44 0.0
21 02:35 Calm 10.00 Fair CLR 46.4 39.2 76% 30.44 0.0
21 02:15 SE 3 10.00 Fair CLR 50 41 71% 30.44 0.0
21 01:55 Calm 10.00 Fair CLR 51.8 41 67% 30.44 0.0
21 01:35 NE 8 10.00 Fair CLR 51.8 41 67% 30.44 0.0
21 01:15 NE 8 10.00 Fair CLR 51.8 41 67% 30.43 0.0
21 00:55 NE 5 10.00 Fair CLR 50 39.2 67% 49 30.42 0.0
21 00:35 E 5 10.00 Fair CLR 50 41 71% 49 30.42 0.0
21 00:15 E 5 10.00 Fair CLR 50 41 71% 49 30.43 0.0
20 23:55 E 6 10.00 Fair CLR 51.8 39.2 62% 30.43 0.0
20 23:35 E 3 10.00 Fair CLR 53.6 39.2 58% 30.44 0.0
20 23:15 E 6 10.00 Fair CLR 53.6 41 63% 30.45 0.0
20 22:55 E 6 10.00 Fair CLR 53.6 41 63% 30.45 0.0
20 22:35 SE 6 10.00 Fair CLR 53.6 41 63% 30.46 0.0
20 22:15 SE 6 10.00 Fair CLR 53.6 42.8 67% 30.47 0.0
20 21:55 SE 5 10.00 Partly Cloudy SCT075 SCT095 SCT120 53.6 42.8 67% 30.47 0.0
20 21:35 E 6 10.00 Mostly Cloudy SCT100 BKN120 53.6 42.8 67% 30.48 0.0
20 21:15 SE 5 10.00 Mostly Cloudy BKN110 55.4 42.8 63% 30.48 0.0
20 20:55 SE 3 10.00 Partly Cloudy SCT120 55.4 42.8 63% 30.48 0.0
20 20:35 E 5 10.00 Fair CLR 59 42.8 55% 30.49 0.0
20 20:15 Calm 10.00 Fair CLR 59 41 51% 30.47 0.0
20 19:55 NW 10 G 20 10.00 Partly Cloudy SCT090 59 42.8 55% 30.47 0.0
20 19:35 NW 16 G 25 10.00 Mostly Cloudy SCT080 BKN090 60.8 41 48% 30.47 0.0
20 19:15 W 8 10.00 Overcast OVC090 62.6 37.4 39% 30.44 0.0
20 18:55 SW 3 10.00 Overcast BKN100 OVC120 64.4 37.4 37% 30.42 0.0
20 18:35 E 5 10.00 Mostly Cloudy BKN110 62.6 39.2 42% 30.41 0.0
20 18:15 NE 14 G 24 10.00 Partly Cloudy SCT022 SCT042 SCT070 64.4 33.8 32% 30.42 0.0
20 17:55 N 24 G 36 10.00 Overcast and Breezy BKN065 BKN085 OVC100 60.8 39.2 45% 30.43 0.0 0.01
20 17:35 N 28 G 35 10.00 Thunderstorm and Windy SCT065 BKN090 OVC110 59 41 51% 30.42 0.0 0.01
20 17:15 N 22 G 47 10.00 Mostly Cloudy and Breezy SCT065 BKN100 BKN120 66.2 35.6 32% 30.42 0.0
20 16:55 NW 8 G 12 10.00 Partly Cloudy SCT100 SCT120 77 12.2 8% 76 30.37 0.0
20 16:35 NE 14 G 18 10.00 NULL NULL 78.8 6.8 6% 77 30.37 0.0
20 16:15 NW 9 G 18 10.00 NULL NULL 78.8 8.6 7% 77 30.37 0.0
20 15:55 N 12 G 20 10.00 Partly Cloudy SCT120 78.8 3.2 5% 77 30.37 0.0
20 15:35 N 9 G 18 10.00 Partly Cloudy SCT110 80.6 -2.2 4% 78 30.38 0.0
20 15:15 N 9 G 22 10.00 Mostly Cloudy SCT095 BKN110 78.8 3.2 5% 77 30.39 0.0
20 14:55 N 10 G 17 10.00 Mostly Cloudy SCT095 BKN110 78.8 12.2 8% 77 30.39 0.0
20 14:35 Calm 10.00 Mostly Cloudy BKN085 77 21.2 12% 76 30.39 0.0
20 14:15 N 6 10.00 Partly Cloudy SCT085 78.8 21.2 12% 77 30.41 0.0
20 13:55 NE 6 G 17 10.00 Partly Cloudy SCT075 77 17.6 11% 76 30.41 0.0
20 13:35 NW 8 10.00 Mostly Cloudy SCT075 BKN090 77 24.8 14% 76 30.42 0.0
20 13:15 NW 8 10.00 Overcast BKN075 OVC085 73.4 26.6 17% 30.42 0.0
20 12:55 NW 6 10.00 Mostly Cloudy BKN080 BKN090 BKN110 73.4 28.4 19% 30.43 0.0
20 12:35 N 9 10.00 Partly Cloudy SCT080 SCT090 SCT110 77 26.6 15% 77 30.44 0.0
20 12:15 N 6 10.00 Mostly Cloudy SCT080 BKN090 75.2 28.4 18% 76 30.44 0.0
20 11:55 N 5 10.00 Mostly Cloudy BKN080 73.4 28.4 19% 30.44 0.0
20 11:35 N 10 G 17 10.00 Mostly Cloudy SCT070 BKN090 73.4 28.4 19% 30.44 0.0
Date Time (mdt) Wind (mph) Vis. (mi.) Weather Sky Cond. Air Dwpt Max. Min. Relative Humidity Wind Chill (°F) Heat Index (°F) altimeter (in) sea level (mb) 1 hr 3 hr 6 hr
6 hour
Temperature (ºF) Pressure Precipitation (in)